Location: Buckeye Ditch
(40.9104°N, 122.9517°W)
Time: 01:05:26
(UTC+00:00)

SR - Pass Details

Date: 21 May 2025
Orbit: 570 x 855 km, 66.7° (Epoch: 11 June)

Event Time Altitude Azimuth Distance (km) Brightness Sun altitude
Exits shadow 07:14:46 30° 80° (E) 1,477 ? -27.6°
Drops below altitude 10° 07:18:29 10° 47° (NE) 2,488 ? -27.7°
Sets 07:21:08 0° 39° (NE) 3,415 ? -27.9°
